| time (UTC) | temp C | wind direction | speed KPH | gust KPH | rain 1hr cm | rain 24hr cm | rain mn cm | humidity % | barometer mb |
| 20260906053101 | 20 | 141 | 4.8 | 8.0 | 0.00 | 0.00 | 0.00 | 51 | 1026.6 |
| 20260906051606 | 20 | 285 | 1.6 | 6.4 | 0.00 | 0.00 | 0.00 | 52 | 1026.6 |
| 20260906050135 | 20 | 0 | 0.0 | 3.2 | 0.00 | 0.00 | 0.00 | 51 | 1026.6 |
| 20260906044604 | 19 | 130 | 3.2 | 6.4 | 0.00 | 0.00 | 0.00 | 55 | 1026.3 |
| 20260906043112 | 20 | 0 | 0.0 | 1.6 | 0.00 | 0.00 | 0.00 | 52 | 1026.6 |
| 20260906041618 | 19 | 58 | 0.0 | 4.8 | 0.00 | 0.00 | 0.00 | 54 | 1026.5 |
| 20260906040123 | 19 | 68 | 0.0 | 3.2 | 0.00 | 0.00 | 0.00 | 54 | 1026.3 |
| 20260906034611 | 20 | 122 | 3.2 | 4.8 | 0.00 | 0.00 | 0.00 | 53 | 1026.6 |
| 20260906033106 | 19 | 0 | 0.0 | 3.2 | 0.00 | 0.00 | 0.00 | 56 | 1027.0 |
| 20260906031606 | 19 | 114 | 1.6 | 6.4 | 0.00 | 0.00 | 0.00 | 55 | 1026.9 |
| 20260906030135 | 19 | 124 | 3.2 | 6.4 | 0.00 | 0.00 | 0.00 | 54 | 1026.9 |
| 20260906024604 | 20 | 0 | 0.0 | 1.6 | 0.00 | 0.00 | 0.00 | 53 | 1026.9 |
| 20260906023126 | 20 | 0 | 0.0 | 3.2 | 0.00 | 0.00 | 0.00 | 53 | 1027.0 |
| 20260906021613 | 20 | 0 | 0.0 | 1.6 | 0.00 | 0.00 | 0.00 | 53 | 1026.9 |
| 20260906020107 | 20 | 0 | 0.0 | 1.6 | 0.00 | 0.00 | 0.00 | 53 | 1026.9 |
| 20260906014621 | 20 | 0 | 0.0 | 1.6 | 0.00 | 0.00 | 0.00 | 52 | 1027.1 |
| 20260906013102 | 20 | 112 | 0.0 | 1.6 | 0.00 | 0.00 | 0.00 | 52 | 1027.3 |
| 20260906011607 | 20 | 0 | 0.0 | 1.6 | 0.00 | 0.00 | 0.00 | 52 | 1027.2 |
| 20260906010104 | 20 | 100 | 0.0 | 1.6 | 0.00 | 0.00 | 0.00 | 52 | 1027.3 |
| 20260906004609 | 20 | 0 | 0.0 | 1.6 | 0.00 | 0.00 | 0.00 | 52 | 1027.3 |
| 20260906003109 | 21 | 65 | 0.0 | 1.6 | 0.00 | 0.00 | 0.00 | 51 | 1027.4 |
| 20260906001605 | 21 | 0 | 0.0 | 0.0 | 0.00 | 0.00 | 0.00 | 50 | 1027.7 |
| 20260905234615 | 20 | 95 | 0.0 | 3.2 | 0.00 | 0.00 | 0.00 | 51 | 1027.4 |
| 20260905233102 | 21 | 0 | 0.0 | 3.2 | 0.00 | 0.00 | 0.00 | 49 | 1027.7 |
| 20260905231600 | 21 | 0 | 0.0 | 1.6 | 0.00 | 0.00 | 0.00 | 49 | 1027.8 |
| 20260905230106 | 21 | 0 | 0.0 | 1.6 | 0.00 | 0.00 | 0.00 | 48 | 1027.7 |
| 20260905224609 | 22 | 0 | 0.0 | 0.0 | 0.00 | 0.00 | 0.00 | 47 | 1027.6 |
| 20260905223101 | 22 | 0 | 0.0 | 3.2 | 0.00 | 0.00 | 0.00 | 46 | 1027.6 |
| 20260905221602 | 23 | 112 | 1.6 | 4.8 | 0.00 | 0.00 | 0.00 | 45 | 1027.6 |
| 20260905220106 | 23 | 0 | 1.6 | 3.2 | 0.00 | 0.00 | 0.00 | 44 | 1027.6 |
| 20260905214612 | 23 | 0 | 0.0 | 8.0 | 0.00 | 0.00 | 0.00 | 43 | 1027.6 |
| 20260905213111 | 24 | 56 | 0.0 | 3.2 | 0.00 | 0.00 | 0.00 | 42 | 1027.6 |
| 20260905211607 | 24 | 51 | 3.2 | 9.7 | 0.00 | 0.00 | 0.00 | 41 | 1027.5 |
| 20260905210108 | 25 | 0 | 0.0 | 8.0 | 0.00 | 0.00 | 0.00 | 40 | 1027.6 |
| 20260905204602 | 25 | 54 | 4.8 | 19.3 | 0.00 | 0.00 | 0.00 | 40 | 1027.6 |
| 20260905203118 | 26 | 345 | 11.3 | 20.9 | 0.00 | 0.00 | 0.00 | 38 | 1027.4 |
| 20260905201608 | 26 | 326 | 11.3 | 24.1 | 0.00 | 0.00 | 0.00 | 37 | 1027.3 |
| 20260905200106 | 26 | 320 | 12.9 | 20.9 | 0.00 | 0.00 | 0.00 | 36 | 1027.1 |
| 20260905194601 | 27 | 20 | 16.1 | 30.6 | 0.00 | 0.00 | 0.00 | 35 | 1026.9 |
| 20260905193103 | 27 | 332 | 20.9 | 32.2 | 0.00 | 0.00 | 0.00 | 33 | 1026.5 |
| 20260905191614 | 28 | 6 | 17.7 | 29.0 | 0.00 | 0.00 | 0.00 | 31 | 1026.3 |
| 20260905190104 | 28 | 342 | 14.5 | 25.7 | 0.00 | 0.00 | 0.00 | 30 | 1026.2 |
| 20260905184611 | 29 | 294 | 16.1 | 27.4 | 0.00 | 0.00 | 0.00 | 29 | 1025.9 |
| 20260905183106 | 30 | 352 | 9.7 | 22.5 | 0.00 | 0.00 | 0.00 | 28 | 1025.9 |
| 20260905181603 | 31 | 0 | 0.0 | 1.6 | 0.00 | 0.00 | 0.00 | 26 | 1025.7 |
| 20260905180100 | 31 | 321 | 0.0 | 0.0 | 0.00 | 0.00 | 0.00 | 25 | 1025.6 |
| 20260905174619 | 31 | 0 | 0.0 | 3.2 | 0.00 | 0.00 | 0.00 | 25 | 1025.7 |
| 20260905173110 | 31 | 247 | 3.2 | 6.4 | 0.00 | 0.00 | 0.00 | 25 | 1025.6 |
| 20260905171606 | 31 | 269 | 3.2 | 8.0 | 0.00 | 0.00 | 0.00 | 25 | 1025.6 |
| 20260905164603 | 32 | 221 | 6.4 | 12.9 | 0.00 | 0.00 | 0.00 | 24 | 1025.5 |
| 20260905163109 | 32 | 226 | 8.0 | 16.1 | 0.00 | 0.00 | 0.00 | 24 | 1025.3 |
| 20260905161605 | 32 | 255 | 11.3 | 20.9 | 0.00 | 0.00 | 0.00 | 23 | 1025.3 |
| 20260905160110 | 33 | 251 | 6.4 | 16.1 | 0.00 | 0.00 | 0.00 | 20 | 1025.1 |
| 20260905154605 | 33 | 182 | 6.4 | 12.9 | 0.00 | 0.00 | 0.00 | 20 | 1025.1 |
| 20260905153113 | 33 | 257 | 3.2 | 22.5 | 0.00 | 0.00 | 0.00 | 20 | 1025.0 |
| 20260905151601 | 33 | 281 | 8.0 | 17.7 | 0.00 | 0.00 | 0.00 | 20 | 1025.1 |
| 20260905150104 | 33 | 219 | 4.8 | 17.7 | 0.00 | 0.00 | 0.00 | 21 | 1025.2 |
| 20260905144613 | 33 | 157 | 4.8 | 12.9 | 0.00 | 0.00 | 0.00 | 21 | 1025.3 |
| 20260905143108 | 33 | 255 | 6.4 | 17.7 | 0.00 | 0.00 | 0.00 | 20 | 1025.5 |
| 20260905141615 | 33 | 184 | 11.3 | 19.3 | 0.00 | 0.00 | 0.00 | 20 | 1025.6 |
| 20260905140109 | 34 | 22 | 9.7 | 25.7 | 0.00 | 0.00 | 0.00 | 20 | 1025.8 |
| 20260905134612 | 34 | 182 | 8.0 | 19.3 | 0.00 | 0.00 | 0.00 | 19 | 1025.9 |
| 20260905133102 | 34 | 265 | 12.9 | 24.1 | 0.00 | 0.00 | 0.00 | 20 | 1026.0 |
| 20260905131608 | 35 | 239 | 14.5 | 29.0 | 0.00 | 0.00 | 0.00 | 19 | 1026.0 |
| 20260905130113 | 35 | 191 | 12.9 | 22.5 | 0.00 | 0.00 | 0.00 | 20 | 1026.2 |
| 20260905124601 | 34 | 207 | 8.0 | 25.7 | 0.00 | 0.00 | 0.00 | 20 | 1026.3 |
| 20260905123102 | 34 | 265 | 4.8 | 22.5 | 0.00 | 0.00 | 0.00 | 21 | 1026.5 |
| 20260905121603 | 34 | 146 | 4.8 | 24.1 | 0.00 | 0.00 | 0.00 | 21 | 1026.6 |
| 20260905120105 | 33 | 57 | 4.8 | 22.5 | 0.00 | 0.00 | 0.00 | 22 | 1026.9 |
| 20260905114636 | 33 | 242 | 11.3 | 24.1 | 0.00 | 0.00 | 0.00 | 23 | 1026.9 |
| 20260905113102 | 33 | 216 | 8.0 | 22.5 | 0.00 | 0.00 | 0.00 | 23 | 1027.0 |
| 20260905111603 | 33 | 184 | 12.9 | 22.5 | 0.00 | 0.00 | 0.00 | 22 | 1027.1 |
| 20260905110059 | 32 | 203 | 6.4 | 24.1 | 0.00 | 0.00 | 0.00 | 23 | 1027.1 |
| 20260905104604 | 32 | 239 | 8.0 | 27.4 | 0.00 | 0.00 | 0.00 | 23 | 1027.3 |
| 20260905103104 | 32 | 216 | 8.0 | 20.9 | 0.00 | 0.00 | 0.00 | 23 | 1027.4 |
| 20260905101559 | 32 | 279 | 9.7 | 19.3 | 0.00 | 0.00 | 0.00 | 24 | 1027.5 |
| 20260905100114 | 31 | 195 | 6.4 | 19.3 | 0.00 | 0.00 | 0.00 | 24 | 1027.6 |
| 20260905094625 | 31 | 164 | 11.3 | 19.3 | 0.00 | 0.00 | 0.00 | 25 | 1027.6 |
| 20260905093103 | 30 | 211 | 4.8 | 14.5 | 0.00 | 0.00 | 0.00 | 28 | 1027.6 |
| 20260905091615 | 29 | 275 | 3.2 | 17.7 | 0.00 | 0.00 | 0.00 | 29 | 1027.5 |
| 20260905090105 | 28 | 226 | 3.2 | 8.0 | 0.00 | 0.00 | 0.00 | 30 | 1027.4 |
| 20260905084600 | 26 | 0 | 0.0 | 3.2 | 0.00 | 0.00 | 0.00 | 35 | 1027.3 |
| 20260905083103 | 25 | 78 | 3.2 | 4.8 | 0.00 | 0.00 | 0.00 | 36 | 1027.1 |
| 20260905081603 | 24 | 64 | 1.6 | 3.2 | 0.00 | 0.00 | 0.00 | 37 | 1027.1 |
| 20260905080106 | 23 | 0 | 0.0 | 1.6 | 0.00 | 0.00 | 0.00 | 42 | 1027.1 |
| 20260905074604 | 21 | 0 | 0.0 | 3.2 | 0.00 | 0.00 | 0.00 | 43 | 1027.2 |
| 20260905073113 | 20 | 250 | 1.6 | 3.2 | 0.00 | 0.00 | 0.00 | 45 | 1027.1 |
| 20260905071601 | 21 | 0 | 0.0 | 1.6 | 0.00 | 0.00 | 0.00 | 43 | 1027.0 |
| 20260905070105 | 20 | 68 | 3.2 | 8.0 | 0.00 | 0.00 | 0.00 | 45 | 1026.8 |
| 20260905064615 | 19 | 60 | 3.2 | 4.8 | 0.00 | 0.00 | 0.00 | 46 | 1026.9 |
| 20260905063117 | 18 | 59 | 3.2 | 8.0 | 0.00 | 0.00 | 0.00 | 48 | 1026.7 |
| 20260905061624 | 18 | 70 | 1.6 | 6.4 | 0.00 | 0.00 | 0.00 | 46 | 1026.7 |
| 20260905060106 | 19 | 0 | 0.0 | 0.0 | 0.00 | 0.00 | 0.00 | 44 | 1026.6 |
| 20260905054606 | 18 | 0 | 0.0 | 1.6 | 0.00 | 0.00 | 0.00 | 44 | 1026.6 |